Year,Month,Day,Hour,Minute,Value (Times are PST for temperature in C)
2007,10,19,04,37,7.00
2007,10,19,04,38,7.00
2007,10,19,04,39,7.00
2007,10,19,04,40,7.00
2007,10,19,04,41,7.00
2007,10,19,04,42,7.00
2007,10,19,04,43,7.00
2007,10,19,04,44,7.00
2007,10,19,04,45,7.00
2007,10,19,04,46,7.00
2007,10,19,04,47,7.00
2007,10,19,04,48,7.00
2007,10,19,04,49,7.00
2007,10,19,04,50,7.00
2007,10,19,04,51,7.00
2007,10,19,04,52,7.00
2007,10,19,04,53,7.00
2007,10,19,04,54,7.00
2007,10,19,04,55,7.00
2007,10,19,04,56,7.00
2007,10,19,04,57,7.00
2007,10,19,04,58,7.00
2007,10,19,04,59,7.00
2007,10,19,05,00,7.00
2007,10,19,05,01,7.00
2007,10,19,05,02,7.00
2007,10,19,05,03,7.00
2007,10,19,05,04,7.00
2007,10,19,05,05,7.00
2007,10,19,05,06,7.10
2007,10,19,05,07,7.10
2007,10,19,05,08,7.10
2007,10,19,05,09,7.10
2007,10,19,05,10,7.10
2007,10,19,05,11,7.10
2007,10,19,05,12,7.00
2007,10,19,05,13,7.00
2007,10,19,05,14,7.00
2007,10,19,05,15,7.00
2007,10,19,05,16,7.00
2007,10,19,05,17,7.00
2007,10,19,05,18,7.00
2007,10,19,05,19,7.00
2007,10,19,05,20,7.00
2007,10,19,05,21,7.00
2007,10,19,05,22,7.00
2007,10,19,05,23,7.00
2007,10,19,05,24,7.00
2007,10,19,05,25,7.00
2007,10,19,05,26,7.00
2007,10,19,05,27,7.00
2007,10,19,05,28,7.00
2007,10,19,05,29,7.00
2007,10,19,05,30,7.00
2007,10,19,05,31,7.00
2007,10,19,05,32,7.00
2007,10,19,05,33,7.00
2007,10,19,05,34,7.00
2007,10,19,05,35,7.00
2007,10,19,05,36,7.00
2007,10,19,05,37,7.00
2007,10,19,05,38,7.00
2007,10,19,05,39,7.00
2007,10,19,05,40,7.00
2007,10,19,05,41,7.10
2007,10,19,05,42,7.10
2007,10,19,05,43,7.10
2007,10,19,05,44,7.10
2007,10,19,05,45,7.10
2007,10,19,05,46,7.10
2007,10,19,05,47,7.10
2007,10,19,05,48,7.10
2007,10,19,05,49,7.10
2007,10,19,05,50,7.10
2007,10,19,05,51,7.10
2007,10,19,05,52,7.10
2007,10,19,05,53,7.10
2007,10,19,05,54,7.10
2007,10,19,05,55,7.10
2007,10,19,05,56,7.10
2007,10,19,05,57,7.10
2007,10,19,05,58,7.10
2007,10,19,05,59,7.10
2007,10,19,06,00,7.10
2007,10,19,06,01,7.10
2007,10,19,06,02,7.10
2007,10,19,06,03,7.10
2007,10,19,06,04,7.10
2007,10,19,06,05,7.10
2007,10,19,06,06,7.10
2007,10,19,06,07,7.10
2007,10,19,06,08,7.10
2007,10,19,06,09,7.10
2007,10,19,06,10,7.10
2007,10,19,06,11,7.10
2007,10,19,06,12,7.10
2007,10,19,06,13,7.10
2007,10,19,06,14,7.10
2007,10,19,06,15,7.10
2007,10,19,06,16,7.10
2007,10,19,06,17,7.10
2007,10,19,06,18,7.10
2007,10,19,06,19,7.10
2007,10,19,06,20,7.10
2007,10,19,06,21,7.10
2007,10,19,06,22,7.10
2007,10,19,06,23,7.10
2007,10,19,06,24,7.10
2007,10,19,06,25,7.10
2007,10,19,06,26,7.10
2007,10,19,06,27,7.10
2007,10,19,06,28,7.10
2007,10,19,06,29,7.10
2007,10,19,06,30,7.10
2007,10,19,06,31,7.10
2007,10,19,06,32,7.10
2007,10,19,06,33,7.10
2007,10,19,06,34,7.10
2007,10,19,06,35,7.10
2007,10,19,06,36,7.10
2007,10,19,06,37,7.10
2007,10,19,06,38,7.20
2007,10,19,06,39,7.20
2007,10,19,06,40,7.20
2007,10,19,06,41,7.20
2007,10,19,06,42,7.20
2007,10,19,06,43,7.20
2007,10,19,06,44,7.20
2007,10,19,06,45,7.20
2007,10,19,06,46,7.20
2007,10,19,06,47,7.10
2007,10,19,06,48,7.20
2007,10,19,06,49,7.20
2007,10,19,06,50,7.20
2007,10,19,06,51,7.20
2007,10,19,06,52,7.20
2007,10,19,06,53,7.20
2007,10,19,06,54,7.20
2007,10,19,06,55,7.20
2007,10,19,06,56,7.20
2007,10,19,06,57,7.20
2007,10,19,06,58,7.20
2007,10,19,06,59,7.20
2007,10,19,07,00,7.20
2007,10,19,07,01,7.40
2007,10,19,07,02,7.50
2007,10,19,07,03,7.60
2007,10,19,07,04,7.70
2007,10,19,07,05,7.80
2007,10,19,07,06,7.80
2007,10,19,07,07,7.90
2007,10,19,07,08,7.90
2007,10,19,07,09,7.90
2007,10,19,07,10,7.90
2007,10,19,07,11,8.00
2007,10,19,07,12,8.10
2007,10,19,07,13,8.20
2007,10,19,07,14,8.20
2007,10,19,07,15,8.20
2007,10,19,07,16,8.30
2007,10,19,07,17,8.40
2007,10,19,07,18,8.40
2007,10,19,07,19,8.40
2007,10,19,07,20,8.40
2007,10,19,07,21,8.50
2007,10,19,07,22,8.50
2007,10,19,07,23,8.40
2007,10,19,07,24,8.40
2007,10,19,07,25,8.40
2007,10,19,07,26,8.40
2007,10,19,07,27,8.40
2007,10,19,07,28,8.40
2007,10,19,07,29,8.40
2007,10,19,07,30,8.50
2007,10,19,07,31,8.50
2007,10,19,07,32,8.50
2007,10,19,07,33,8.60
2007,10,19,07,34,8.60
2007,10,19,07,35,8.60
2007,10,19,07,36,8.70
2007,10,19,07,37,8.70
2007,10,19,07,38,8.70
2007,10,19,07,39,8.80
2007,10,19,07,40,8.80
2007,10,19,07,41,8.80
2007,10,19,07,42,8.80
2007,10,19,07,43,8.90
2007,10,19,07,44,8.90
2007,10,19,07,45,8.90
2007,10,19,07,46,8.90
2007,10,19,07,47,9.00
2007,10,19,07,48,9.00
2007,10,19,07,49,9.10
2007,10,19,07,50,9.20
2007,10,19,07,51,9.20
2007,10,19,07,52,9.30
2007,10,19,07,53,9.30
2007,10,19,07,54,9.40
2007,10,19,07,55,9.40
2007,10,19,07,56,9.40
2007,10,19,07,57,9.50
2007,10,19,07,58,9.50
2007,10,19,07,59,9.50
2007,10,19,08,00,9.40
2007,10,19,08,01,9.40
2007,10,19,08,02,9.40
2007,10,19,08,03,9.30
2007,10,19,08,04,9.30
2007,10,19,08,05,9.20
2007,10,19,08,06,9.20
2007,10,19,08,07,9.20
2007,10,19,08,08,9.10
2007,10,19,08,09,9.10
2007,10,19,08,10,9.00
2007,10,19,08,11,9.00
2007,10,19,08,12,8.90
2007,10,19,08,13,8.90
2007,10,19,08,14,8.90
2007,10,19,08,15,8.90
2007,10,19,08,16,8.90
2007,10,19,08,17,8.90
2007,10,19,08,18,8.90
2007,10,19,08,19,8.90
2007,10,19,08,20,8.90
2007,10,19,08,21,8.90
2007,10,19,08,22,8.90
2007,10,19,08,23,8.90
2007,10,19,08,24,8.80
2007,10,19,08,25,8.80
2007,10,19,08,26,8.80
2007,10,19,08,27,8.80
2007,10,19,08,28,8.80
2007,10,19,08,29,8.80
2007,10,19,08,30,8.80
2007,10,19,08,31,8.80
2007,10,19,08,32,8.80
2007,10,19,08,33,8.80
2007,10,19,08,34,8.80
2007,10,19,08,35,8.80
2007,10,19,08,36,8.80
2007,10,19,08,37,8.80
2007,10,19,08,38,8.80
2007,10,19,08,39,8.80
2007,10,19,08,40,8.80
2007,10,19,08,41,8.80
2007,10,19,08,42,8.80
2007,10,19,08,43,8.80
2007,10,19,08,44,8.80
2007,10,19,08,45,8.80
2007,10,19,08,46,8.80
2007,10,19,08,47,8.80
2007,10,19,08,48,8.80
2007,10,19,08,49,8.80
2007,10,19,08,50,8.80
2007,10,19,08,51,8.80
2007,10,19,08,52,8.80
2007,10,19,08,53,8.80
2007,10,19,08,54,8.80
2007,10,19,08,55,8.80
2007,10,19,08,56,8.80
2007,10,19,08,57,8.80
2007,10,19,08,58,8.80
2007,10,19,08,59,8.80
2007,10,19,09,00,8.80
2007,10,19,09,01,8.80
2007,10,19,09,02,8.80
2007,10,19,09,03,8.80
2007,10,19,09,04,8.80
2007,10,19,09,05,8.80
2007,10,19,09,06,8.80
2007,10,19,09,07,8.80
2007,10,19,09,08,8.80
2007,10,19,09,09,8.80
2007,10,19,09,10,8.80
2007,10,19,09,11,8.80
2007,10,19,09,12,8.80
2007,10,19,09,13,8.80
2007,10,19,09,14,8.90
2007,10,19,09,15,8.90
2007,10,19,09,16,8.90
2007,10,19,09,17,8.90
2007,10,19,09,18,8.90
2007,10,19,09,19,8.90
2007,10,19,09,20,9.00
2007,10,19,09,21,9.00
2007,10,19,09,22,9.10
2007,10,19,09,23,9.10
2007,10,19,09,24,9.10
2007,10,19,09,25,9.10
2007,10,19,09,26,9.10
2007,10,19,09,27,9.20
2007,10,19,09,28,9.20
2007,10,19,09,29,9.30
2007,10,19,09,30,9.30
2007,10,19,09,31,9.40
2007,10,19,09,32,9.40
2007,10,19,09,33,9.40
2007,10,19,09,34,9.40
2007,10,19,09,35,9.50
2007,10,19,09,36,9.50
2007,10,19,09,37,9.40
2007,10,19,09,38,9.30
2007,10,19,09,39,9.10
2007,10,19,09,40,9.00
2007,10,19,09,41,8.90
2007,10,19,09,42,8.90
2007,10,19,09,43,8.80
2007,10,19,09,44,8.70
2007,10,19,09,45,8.70
2007,10,19,09,46,8.60
2007,10,19,09,47,8.60
2007,10,19,09,48,8.60
2007,10,19,09,49,8.60
2007,10,19,09,50,8.60
2007,10,19,09,51,8.60
2007,10,19,09,52,8.60
2007,10,19,09,53,8.70
2007,10,19,09,54,8.70
2007,10,19,09,55,8.80
2007,10,19,09,56,8.80
2007,10,19,09,57,8.90
2007,10,19,09,58,8.90
2007,10,19,09,59,8.90
2007,10,19,10,00,9.00
2007,10,19,10,01,9.00
2007,10,19,10,02,9.00
2007,10,19,10,03,9.10
2007,10,19,10,04,9.10
2007,10,19,10,05,9.20
2007,10,19,10,06,9.20
2007,10,19,10,07,9.20
2007,10,19,10,08,9.20
2007,10,19,10,09,9.20
2007,10,19,10,10,9.30
2007,10,19,10,11,9.20
2007,10,19,10,12,9.30
2007,10,19,10,13,9.30
2007,10,19,10,14,9.30
2007,10,19,10,15,9.30
2007,10,19,10,16,9.30
2007,10,19,10,17,9.30
2007,10,19,10,18,9.30
2007,10,19,10,19,9.30
2007,10,19,10,20,9.30
2007,10,19,10,21,9.30
2007,10,19,10,22,9.30
2007,10,19,10,23,9.40
2007,10,19,10,24,9.40
2007,10,19,10,25,9.40
2007,10,19,10,26,9.40
2007,10,19,10,27,9.40
2007,10,19,10,28,9.40
2007,10,19,10,29,9.40
2007,10,19,10,30,9.40
2007,10,19,10,31,9.30
2007,10,19,10,32,9.30
2007,10,19,10,33,9.30
2007,10,19,10,34,9.30
2007,10,19,10,35,9.30
2007,10,19,10,36,9.30
2007,10,19,10,37,9.30
2007,10,19,10,38,9.40
2007,10,19,10,39,9.40
2007,10,19,10,40,9.50
2007,10,19,10,41,9.50
2007,10,19,10,42,9.50
2007,10,19,10,43,9.50
2007,10,19,10,44,9.60
2007,10,19,10,45,9.70
2007,10,19,10,46,9.70
2007,10,19,10,47,9.70
2007,10,19,10,48,9.70
2007,10,19,10,49,9.70
2007,10,19,10,50,9.80
2007,10,19,10,51,9.80
2007,10,19,10,52,9.90
2007,10,19,10,53,10.00
2007,10,19,10,54,10.10
2007,10,19,10,55,10.10
2007,10,19,10,56,10.20
2007,10,19,10,57,10.30
2007,10,19,10,58,10.40
2007,10,19,10,59,10.40
2007,10,19,11,00,10.50
2007,10,19,11,01,10.50
2007,10,19,11,02,10.60
2007,10,19,11,03,10.60
2007,10,19,11,04,10.70
2007,10,19,11,05,10.70
2007,10,19,11,06,10.80
2007,10,19,11,07,10.80
2007,10,19,11,08,10.80
2007,10,19,11,09,10.90
2007,10,19,11,10,10.90
2007,10,19,11,11,11.00
2007,10,19,11,12,11.10
2007,10,19,11,13,11.20
2007,10,19,11,14,11.20
2007,10,19,11,15,11.30
2007,10,19,11,16,11.30
2007,10,19,11,17,11.30
2007,10,19,11,18,11.40
2007,10,19,11,19,11.40
2007,10,19,11,20,11.40
2007,10,19,11,21,11.40
2007,10,19,11,22,11.40
2007,10,19,11,23,11.40
2007,10,19,11,24,11.40
2007,10,19,11,25,11.40
2007,10,19,11,26,11.30
2007,10,19,11,27,11.30
2007,10,19,11,28,11.30
2007,10,19,11,29,11.30
2007,10,19,11,30,11.30
2007,10,19,11,31,11.30
2007,10,19,11,32,11.20
2007,10,19,11,33,11.20
2007,10,19,11,34,11.20
2007,10,19,11,35,11.20
2007,10,19,11,36,11.20
2007,10,19,11,37,11.10
2007,10,19,11,38,11.10
2007,10,19,11,39,11.00
2007,10,19,11,40,11.00
2007,10,19,11,41,10.90
2007,10,19,11,42,10.90
2007,10,19,11,43,10.90
2007,10,19,11,44,10.80
2007,10,19,11,45,10.80
2007,10,19,11,46,10.70
2007,10,19,11,47,10.60
2007,10,19,11,48,10.50
2007,10,19,11,49,10.40
2007,10,19,11,50,10.20
2007,10,19,11,51,10.10
2007,10,19,11,52,10.00
2007,10,19,11,53,9.80
2007,10,19,11,54,9.70
2007,10,19,11,55,9.60
2007,10,19,11,56,9.50
2007,10,19,11,57,9.40
2007,10,19,11,58,9.40
2007,10,19,11,59,9.30
2007,10,19,12,00,9.30
2007,10,19,12,01,9.30
2007,10,19,12,02,9.20
2007,10,19,12,03,9.20
2007,10,19,12,04,9.20
2007,10,19,12,05,9.20
2007,10,19,12,06,9.20
2007,10,19,12,07,9.20
2007,10,19,12,08,9.20
2007,10,19,12,09,9.20
2007,10,19,12,10,9.20
2007,10,19,12,11,9.20
2007,10,19,12,12,9.20
2007,10,19,12,13,9.20
2007,10,19,12,14,9.20
2007,10,19,12,15,9.20
2007,10,19,12,16,9.20
2007,10,19,12,17,9.20
2007,10,19,12,18,9.10
2007,10,19,12,19,9.10
2007,10,19,12,20,9.10
2007,10,19,12,21,9.00
2007,10,19,12,22,9.00
2007,10,19,12,23,8.90
2007,10,19,12,24,8.80
2007,10,19,12,25,8.80
2007,10,19,12,26,8.70
2007,10,19,12,27,8.70
2007,10,19,12,28,8.70
2007,10,19,12,29,8.70
2007,10,19,12,30,8.70
2007,10,19,12,31,8.60
2007,10,19,12,32,8.60
2007,10,19,12,33,8.60
2007,10,19,12,34,8.60
2007,10,19,12,35,8.60
2007,10,19,12,36,8.60
2007,10,19,12,37,8.60
2007,10,19,12,38,8.60
2007,10,19,12,39,8.60
2007,10,19,12,40,8.60
2007,10,19,12,41,8.70
2007,10,19,12,42,8.60
2007,10,19,12,43,8.60
2007,10,19,12,44,8.60
2007,10,19,12,45,8.60
2007,10,19,12,46,8.60
2007,10,19,12,47,8.60
2007,10,19,12,48,8.50
2007,10,19,12,49,8.50
2007,10,19,12,50,8.50
2007,10,19,12,51,8.50
2007,10,19,12,52,8.50
2007,10,19,12,53,8.50
2007,10,19,12,54,8.50
2007,10,19,12,55,8.50
2007,10,19,12,56,8.50
2007,10,19,12,57,8.50
2007,10,19,12,58,8.40
2007,10,19,12,59,8.40
2007,10,19,13,00,8.40
2007,10,19,13,01,8.40
2007,10,19,13,02,8.40
2007,10,19,13,03,8.40
2007,10,19,13,04,8.40
2007,10,19,13,05,8.50
2007,10,19,13,06,8.50
2007,10,19,13,07,8.50
2007,10,19,13,08,8.50
2007,10,19,13,09,8.60
2007,10,19,13,10,8.60
2007,10,19,13,11,8.60
2007,10,19,13,12,8.60
2007,10,19,13,13,8.70
2007,10,19,13,14,8.70
2007,10,19,13,15,8.70
2007,10,19,13,16,8.80
2007,10,19,13,17,8.80
2007,10,19,13,18,8.80
2007,10,19,13,19,8.80
2007,10,19,13,20,8.80
2007,10,19,13,21,8.80
2007,10,19,13,22,8.80
2007,10,19,13,23,8.80
2007,10,19,13,24,8.90
2007,10,19,13,25,8.90
2007,10,19,13,26,8.90
2007,10,19,13,27,8.90
2007,10,19,13,28,9.00
2007,10,19,13,29,9.00
2007,10,19,13,30,9.00
2007,10,19,13,31,9.10
2007,10,19,13,32,9.10
2007,10,19,13,33,9.10
2007,10,19,13,34,9.10
2007,10,19,13,35,9.10
2007,10,19,13,36,9.10
2007,10,19,13,37,9.10
2007,10,19,13,38,9.10
2007,10,19,13,39,9.10
2007,10,19,13,40,9.10
2007,10,19,13,41,9.20
2007,10,19,13,42,9.20
2007,10,19,13,43,9.30
2007,10,19,13,44,9.30
2007,10,19,13,45,9.30
2007,10,19,13,46,9.40
2007,10,19,13,47,9.40
2007,10,19,13,48,9.50
2007,10,19,13,49,9.50
2007,10,19,13,50,9.60
2007,10,19,13,51,9.60
2007,10,19,13,52,9.60
2007,10,19,13,53,9.60
2007,10,19,13,54,9.70
2007,10,19,13,55,9.70
2007,10,19,13,56,9.80
2007,10,19,13,57,9.80
2007,10,19,13,58,9.90
2007,10,19,13,59,9.90
2007,10,19,14,00,10.00
2007,10,19,14,01,10.00
2007,10,19,14,02,10.10
2007,10,19,14,03,10.10
2007,10,19,14,04,10.10
2007,10,19,14,05,10.10
2007,10,19,14,06,10.10
2007,10,19,14,07,10.10
2007,10,19,14,08,10.20
2007,10,19,14,09,10.20
2007,10,19,14,10,10.10
2007,10,19,14,11,10.10
2007,10,19,14,12,10.10
2007,10,19,14,13,10.00
2007,10,19,14,14,9.90
2007,10,19,14,15,9.90
2007,10,19,14,16,9.90
2007,10,19,14,17,9.80
2007,10,19,14,18,9.80
2007,10,19,14,19,9.90
2007,10,19,14,20,9.90
2007,10,19,14,21,9.90
2007,10,19,14,22,10.00
2007,10,19,14,23,10.10
2007,10,19,14,24,10.10
2007,10,19,14,25,10.20
2007,10,19,14,26,10.20
2007,10,19,14,27,10.30
2007,10,19,14,28,10.30
2007,10,19,14,29,10.30
2007,10,19,14,30,10.40
2007,10,19,14,31,10.40
2007,10,19,14,32,10.50
2007,10,19,14,33,10.50
2007,10,19,14,34,10.60
2007,10,19,14,35,10.60
2007,10,19,14,36,10.60
2007,10,19,14,37,10.70
2007,10,19,14,38,10.60
2007,10,19,14,39,10.60
2007,10,19,14,40,10.70
2007,10,19,14,41,10.70
2007,10,19,14,42,10.70
2007,10,19,14,43,10.80
2007,10,19,14,44,10.80
2007,10,19,14,45,10.80
2007,10,19,14,46,10.90
2007,10,19,14,47,11.00
2007,10,19,14,48,11.00
2007,10,19,14,49,11.10
2007,10,19,14,50,11.20
2007,10,19,14,51,11.20
2007,10,19,14,52,11.20
2007,10,19,14,53,11.30
2007,10,19,14,54,11.30
2007,10,19,14,55,11.20
2007,10,19,14,56,11.20
2007,10,19,14,57,11.20
2007,10,19,14,58,11.20
2007,10,19,14,59,11.30
2007,10,19,15,00,11.30
2007,10,19,15,01,11.30
2007,10,19,15,02,11.30
2007,10,19,15,03,11.30
2007,10,19,15,04,11.30
2007,10,19,15,05,11.30
2007,10,19,15,06,11.30
2007,10,19,15,07,11.30
2007,10,19,15,08,11.30
2007,10,19,15,09,11.20
2007,10,19,15,10,11.10
2007,10,19,15,11,11.10
2007,10,19,15,12,11.00
2007,10,19,15,13,11.00
2007,10,19,15,14,10.90
2007,10,19,15,15,10.90
2007,10,19,15,16,10.90
2007,10,19,15,17,10.80
2007,10,19,15,18,10.80
2007,10,19,15,19,10.80
2007,10,19,15,20,10.70
2007,10,19,15,21,10.70
2007,10,19,15,22,10.60
2007,10,19,15,23,10.60
2007,10,19,15,24,10.60
2007,10,19,15,25,10.60
2007,10,19,15,26,10.60
2007,10,19,15,27,10.60
2007,10,19,15,28,10.50
2007,10,19,15,29,10.50
2007,10,19,15,30,10.50
2007,10,19,15,31,10.50
2007,10,19,15,32,10.50
2007,10,19,15,33,10.50
2007,10,19,15,34,10.50
2007,10,19,15,35,10.60
2007,10,19,15,36,10.60
2007,10,19,15,37,10.60
2007,10,19,15,38,10.60
2007,10,19,15,39,10.60
2007,10,19,15,40,10.60
2007,10,19,15,41,10.60
2007,10,19,15,42,10.60
2007,10,19,15,43,10.60
2007,10,19,15,44,10.60
2007,10,19,15,45,10.60
2007,10,19,15,46,10.60
2007,10,19,15,47,10.50
2007,10,19,15,48,10.40
2007,10,19,15,49,10.30
2007,10,19,15,50,10.30
2007,10,19,15,51,10.30
2007,10,19,15,52,10.30
2007,10,19,15,53,10.30
2007,10,19,15,54,10.30
2007,10,19,15,55,10.20
2007,10,19,15,56,10.20
2007,10,19,15,57,10.20
2007,10,19,15,58,10.20
2007,10,19,15,59,10.20
2007,10,19,16,00,10.20
2007,10,19,16,01,10.20
2007,10,19,16,02,10.20
2007,10,19,16,03,10.20
2007,10,19,16,04,10.20
2007,10,19,16,05,10.20
2007,10,19,16,06,10.20
2007,10,19,16,07,10.20
2007,10,19,16,08,10.20
2007,10,19,16,09,10.20
2007,10,19,16,10,10.20
2007,10,19,16,11,10.20
2007,10,19,16,12,10.20
2007,10,19,16,13,10.10
2007,10,19,16,14,10.00
2007,10,19,16,15,9.90
2007,10,19,16,16,9.90
2007,10,19,16,17,9.90
2007,10,19,16,18,9.80
2007,10,19,16,19,9.80
2007,10,19,16,20,9.80
2007,10,19,16,21,9.70
2007,10,19,16,22,9.70
2007,10,19,16,23,9.70
2007,10,19,16,24,9.70
2007,10,19,16,25,9.60
2007,10,19,16,26,9.50
2007,10,19,16,27,9.30
2007,10,19,16,28,9.10
2007,10,19,16,29,8.90
2007,10,19,16,30,8.70
2007,10,19,16,34,8.00
2007,10,19,16,35,7.90
2007,10,19,16,36,7.80
2007,10,19,16,37,7.70
2007,10,19,16,38,7.70
2007,10,19,16,39,7.60
2007,10,19,16,40,7.50
2007,10,19,16,41,7.50
2007,10,19,16,42,7.50
2007,10,19,16,43,7.40
2007,10,19,16,44,7.40
2007,10,19,16,45,7.40
2007,10,19,16,46,7.40
2007,10,19,16,47,7.30
2007,10,19,16,48,7.30
2007,10,19,16,49,7.30
2007,10,19,16,50,7.40
2007,10,19,16,51,7.40
2007,10,19,16,52,7.40
2007,10,19,16,53,7.40
2007,10,19,16,54,7.40
2007,10,19,16,55,7.40
2007,10,19,16,56,7.50
2007,10,19,16,57,7.50
2007,10,19,16,58,7.50
2007,10,19,16,59,7.50
2007,10,19,17,00,7.50
2007,10,19,17,01,7.40
2007,10,19,17,02,7.40
2007,10,19,17,03,7.40
2007,10,19,17,04,7.40
2007,10,19,17,05,7.40
2007,10,19,17,06,7.40
2007,10,19,17,07,7.40
2007,10,19,17,08,7.40
2007,10,19,17,09,7.40
2007,10,19,17,10,7.40
2007,10,19,17,11,7.40
2007,10,19,17,12,7.40
2007,10,19,17,13,7.40
2007,10,19,17,14,7.40
2007,10,19,17,15,7.40
2007,10,19,17,16,7.40
2007,10,19,17,17,7.50
2007,10,19,17,18,7.50
2007,10,19,17,19,7.50
2007,10,19,17,20,7.50
2007,10,19,17,21,7.50
2007,10,19,17,22,7.50
2007,10,19,17,23,7.50
2007,10,19,17,24,7.50
2007,10,19,17,25,7.50
2007,10,19,17,26,7.50
2007,10,19,17,27,7.50
2007,10,19,17,28,7.50
2007,10,19,17,29,7.50
2007,10,19,17,30,7.40
2007,10,19,17,31,7.50
2007,10,19,17,32,7.50
2007,10,19,17,33,7.50
2007,10,19,17,34,7.50
2007,10,19,17,35,7.50
2007,10,19,17,36,7.50
2007,10,19,17,37,7.50
2007,10,19,17,38,7.50
2007,10,19,17,39,7.60
2007,10,19,17,40,7.60
2007,10,19,17,41,7.60
2007,10,19,17,42,7.60
2007,10,19,17,43,7.60
2007,10,19,17,44,7.60
2007,10,19,17,45,7.60
2007,10,19,17,46,7.60
2007,10,19,17,47,7.60
2007,10,19,17,48,7.60
2007,10,19,17,49,7.60
2007,10,19,17,50,7.50
2007,10,19,17,51,7.50
2007,10,19,17,52,7.50
2007,10,19,17,53,7.50
2007,10,19,17,54,7.50
2007,10,19,17,55,7.50
2007,10,19,17,56,7.50
2007,10,19,17,57,7.60
2007,10,19,17,58,7.50
2007,10,19,17,59,7.50
2007,10,19,18,00,7.50
2007,10,19,18,01,7.50
2007,10,19,18,02,7.50
2007,10,19,18,03,7.50
2007,10,19,18,04,7.50
2007,10,19,18,05,7.60
2007,10,19,18,06,7.60
2007,10,19,18,07,7.60
2007,10,19,18,08,7.60
2007,10,19,18,09,7.60
2007,10,19,18,10,7.60
2007,10,19,18,11,7.70
2007,10,19,18,12,7.70
2007,10,19,18,13,7.70
2007,10,19,18,14,7.70
2007,10,19,18,15,7.70
2007,10,19,18,16,7.70
2007,10,19,18,17,7.70
2007,10,19,18,18,7.70
2007,10,19,18,19,7.70
2007,10,19,18,20,7.70
2007,10,19,18,21,7.70
2007,10,19,18,22,7.70
2007,10,19,18,23,7.70
2007,10,19,18,24,7.70
2007,10,19,18,25,7.70
2007,10,19,18,26,7.70
2007,10,19,18,27,7.70
2007,10,19,18,28,7.70
2007,10,19,18,29,7.70
2007,10,19,18,30,7.70
2007,10,19,18,31,7.70
2007,10,19,18,32,7.70
2007,10,19,18,33,7.70
2007,10,19,18,34,7.70
2007,10,19,18,35,7.70
2007,10,19,18,36,7.60
2007,10,19,18,37,7.70
2007,10,19,18,38,7.60
2007,10,19,18,39,7.60
2007,10,19,18,40,7.60
2007,10,19,18,41,7.60
2007,10,19,18,42,7.60
2007,10,19,18,43,7.60
2007,10,19,18,44,7.60
2007,10,19,18,45,7.60
2007,10,19,18,46,7.60
2007,10,19,18,47,7.60
2007,10,19,18,48,7.50
2007,10,19,18,49,7.50
2007,10,19,18,50,7.50
2007,10,19,18,51,7.50
2007,10,19,18,52,7.50
2007,10,19,18,53,7.40
2007,10,19,18,54,7.40
2007,10,19,18,55,7.40
2007,10,19,18,56,7.40
2007,10,19,18,57,7.40
2007,10,19,18,58,7.40
2007,10,19,18,59,7.40
2007,10,19,19,00,7.40
2007,10,19,19,01,7.40
2007,10,19,19,02,7.40
2007,10,19,19,03,7.40
2007,10,19,19,04,7.40
2007,10,19,19,05,7.40
2007,10,19,19,06,7.30
2007,10,19,19,07,7.30
2007,10,19,19,08,7.30
2007,10,19,19,09,7.30
2007,10,19,19,10,7.30
2007,10,19,19,11,7.30
2007,10,19,19,12,7.30
2007,10,19,19,13,7.30
2007,10,19,19,14,7.30
2007,10,19,19,15,7.30
2007,10,19,19,16,7.30
2007,10,19,19,17,7.30
2007,10,19,19,18,7.40
2007,10,19,19,19,7.40
2007,10,19,19,20,7.40
2007,10,19,19,21,7.40
2007,10,19,19,22,7.50
2007,10,19,19,23,7.50
2007,10,19,19,24,7.50
2007,10,19,19,25,7.50
2007,10,19,19,26,7.40
2007,10,19,19,27,7.40
2007,10,19,19,28,7.40
2007,10,19,19,29,7.40
2007,10,19,19,30,7.40
2007,10,19,19,31,7.40
2007,10,19,19,32,7.30
2007,10,19,19,33,7.30
2007,10,19,19,34,7.30
2007,10,19,19,35,7.30
2007,10,19,19,36,7.30
2007,10,19,19,37,7.30
2007,10,19,19,38,7.30
2007,10,19,19,39,7.30
2007,10,19,19,40,7.20
2007,10,19,19,41,7.20
2007,10,19,19,42,7.20
2007,10,19,19,43,7.20
2007,10,19,19,44,7.20
2007,10,19,19,45,7.20
2007,10,19,19,46,7.20
2007,10,19,19,47,7.20
2007,10,19,19,48,7.20
2007,10,19,19,49,7.20
2007,10,19,19,50,7.20
2007,10,19,19,51,7.20
2007,10,19,19,52,7.20
2007,10,19,19,53,7.20
2007,10,19,19,54,7.20
2007,10,19,19,55,7.30
2007,10,19,19,56,7.30
2007,10,19,19,57,7.40
2007,10,19,19,58,7.40
2007,10,19,19,59,7.50
2007,10,19,20,00,7.60
2007,10,19,20,01,7.60
2007,10,19,20,02,7.60
2007,10,19,20,03,7.60
2007,10,19,20,04,7.60
2007,10,19,20,05,7.60
2007,10,19,20,06,7.60
2007,10,19,20,07,7.60
2007,10,19,20,08,7.60
2007,10,19,20,09,7.60
2007,10,19,20,10,7.60
2007,10,19,20,11,7.60
2007,10,19,20,12,7.60
2007,10,19,20,13,7.60
2007,10,19,20,14,7.70
2007,10,19,20,15,7.70
2007,10,19,20,16,7.70
2007,10,19,20,17,7.70
2007,10,19,20,18,7.70
2007,10,19,20,19,7.60
2007,10,19,20,20,7.60
2007,10,19,20,21,7.60
2007,10,19,20,22,7.60
2007,10,19,20,23,7.60
2007,10,19,20,24,7.60
2007,10,19,20,25,7.60
2007,10,19,20,26,7.60
2007,10,19,20,27,7.60
2007,10,19,20,28,7.60
2007,10,19,20,29,7.60
2007,10,19,20,30,7.60
2007,10,19,20,31,7.60
2007,10,19,20,32,7.60
2007,10,19,20,33,7.60
2007,10,19,20,34,7.70
2007,10,19,20,35,7.70
2007,10,19,20,36,7.70
2007,10,19,20,37,7.70
2007,10,19,20,38,7.70
2007,10,19,20,39,7.70
2007,10,19,20,40,7.70
2007,10,19,20,41,7.70
2007,10,19,20,42,7.70
2007,10,19,20,43,7.70
2007,10,19,20,44,7.70
2007,10,19,20,45,7.70
2007,10,19,20,46,7.70
2007,10,19,20,47,7.60
2007,10,19,20,48,7.70
2007,10,19,20,49,7.60
2007,10,19,20,50,7.60
2007,10,19,20,51,7.60
2007,10,19,20,52,7.60
2007,10,19,20,53,7.60
2007,10,19,20,54,7.50
2007,10,19,20,55,7.50
2007,10,19,20,56,7.50
2007,10,19,20,57,7.50
2007,10,19,20,58,7.50
2007,10,19,20,59,7.50
2007,10,19,21,00,7.40
2007,10,19,21,01,7.40
2007,10,19,21,02,7.40
2007,10,19,21,03,7.40
2007,10,19,21,04,7.40
2007,10,19,21,05,7.40
2007,10,19,21,06,7.40
2007,10,19,21,07,7.40
2007,10,19,21,08,7.50
2007,10,19,21,09,7.50
2007,10,19,21,10,7.50
2007,10,19,21,11,7.50
2007,10,19,21,12,7.40
2007,10,19,21,13,7.50
2007,10,19,21,14,7.40
2007,10,19,21,15,7.50
2007,10,19,21,16,7.50
2007,10,19,21,17,7.50
2007,10,19,21,18,7.50
2007,10,19,21,19,7.50
2007,10,19,21,20,7.50
2007,10,19,21,21,7.60
2007,10,19,21,22,7.60
2007,10,19,21,23,7.60
2007,10,19,21,24,7.70
2007,10,19,21,25,7.70
2007,10,19,21,26,7.70
2007,10,19,21,27,7.70
2007,10,19,21,28,7.70
2007,10,19,21,29,7.70
2007,10,19,21,30,7.70
2007,10,19,21,31,7.70
2007,10,19,21,32,7.70
2007,10,19,21,33,7.70
2007,10,19,21,34,7.80
2007,10,19,21,35,7.80
2007,10,19,21,36,7.80
2007,10,19,21,37,7.80
2007,10,19,21,38,7.80
2007,10,19,21,39,7.70
2007,10,19,21,40,7.70
2007,10,19,21,41,7.70
2007,10,19,21,42,7.70
2007,10,19,21,43,7.70
2007,10,19,21,44,7.70
2007,10,19,21,45,7.70
2007,10,19,21,46,7.70
2007,10,19,21,47,7.70
2007,10,19,21,48,7.70
2007,10,19,21,49,7.80
2007,10,19,21,50,7.80
2007,10,19,21,51,7.80
2007,10,19,21,52,7.80
2007,10,19,21,53,7.80
2007,10,19,21,54,7.70
2007,10,19,21,55,7.70
2007,10,19,21,56,7.80
2007,10,19,21,57,7.80
2007,10,19,21,58,7.70
2007,10,19,21,59,7.70
2007,10,19,22,00,7.70
2007,10,19,22,01,7.70
2007,10,19,22,02,7.80
2007,10,19,22,03,7.80
2007,10,19,22,04,7.80
2007,10,19,22,05,7.80
2007,10,19,22,06,7.80
2007,10,19,22,07,7.80
2007,10,19,22,08,7.80
2007,10,19,22,09,7.80
2007,10,19,22,10,7.80
2007,10,19,22,11,7.80
2007,10,19,22,12,7.80
2007,10,19,22,13,7.80
2007,10,19,22,14,7.80
2007,10,19,22,15,7.80
2007,10,19,22,16,7.80
2007,10,19,22,17,7.80
2007,10,19,22,18,7.90
2007,10,19,22,19,7.80
2007,10,19,22,20,7.80
2007,10,19,22,21,7.80
2007,10,19,22,22,7.80
2007,10,19,22,23,7.80
2007,10,19,22,24,7.80
2007,10,19,22,25,7.80
2007,10,19,22,26,7.80
2007,10,19,22,27,7.80
2007,10,19,22,28,7.80
2007,10,19,22,29,7.80
2007,10,19,22,30,7.80
2007,10,19,22,31,7.80
2007,10,19,22,32,7.80
2007,10,19,22,33,7.80
2007,10,19,22,34,7.90
2007,10,19,22,35,7.90
2007,10,19,22,36,7.90
2007,10,19,22,37,7.90
2007,10,19,22,38,7.90